Simultaneous Nadir Overpasses (SNOs) Predictions

Prediction of SNOs between AQUA and NOAA-19 Satellite Orbit:

Table of predicted SNOs for the next 14.0 days since TLE Epoch: 4/22/2023
Index Date (AQUA) Time (AQUA) Lat,Lon (AQUA) SZA (AQUA ) Date (NOAA-19) Time (NOAA-19) Lat,Lon (NOAA-19) SZA (NOAA-19 ) Distance(km) Time Diff (sec)
1 04/23/2023 06:40:45 -76.60,-110.77 115.72 04/23/2023 06:40:29 -76.60,-110.86 115.71 2.39 16
2 04/23/2023 07:30:11 76.63, 56.75 64.31 04/23/2023 07:31:22 76.65, 56.61 64.32 3.83 71
3 04/25/2023 11:23:09 -76.57, 178.75 116.48 04/25/2023 11:22:04 -76.57, 178.68 116.47 1.69 65
4 04/25/2023 12:12:35 76.61, -13.75 63.56 04/25/2023 12:12:56 76.64, -13.72 63.59 3.96 21
5 04/27/2023 16:54:58 76.58, -84.24 62.82 04/27/2023 16:54:31 76.59, -84.26 62.83 1.13 27
6 04/27/2023 17:44:23 -76.66, 83.15 117.11 04/27/2023 17:45:34 -76.66, 83.25 117.13 2.64 71
7 04/29/2023 21:37:19 76.56,-154.72 62.10 04/29/2023 21:36:06 76.49,-154.99 62.06 10.43 73
8 04/29/2023 22:26:45 -76.63, 12.67 117.84 04/29/2023 22:27:09 -76.61, 12.72 117.86 2.66 24
9 05/02/2023 03:09:06 -76.61, -57.80 118.54 05/02/2023 03:08:43 -76.59, -57.68 118.55 3.41 23
10 05/02/2023 03:58:32 76.66, 109.67 61.51 05/02/2023 03:59:35 76.65, 109.83 61.49 4.04 63
11 05/04/2023 07:51:25 -76.53,-128.11 119.27 05/04/2023 07:50:17 -76.56,-128.12 119.23 3.55 68



Historial Predications of SNOs between AQUA and NOAA-19
